Change the Weather History Date:

Monday, May 19, 2014

  Actual Average Record
Temperature  
Mean Temperature 54 °F -  
Max Temperature 71 °F 77 °F 80 °F (2013)
Min Temperature 37 °F 55 °F 37 °F (2014)
Degree Days  
Heating Degree Days 11    
Growing Degree Days 4 (Base 50)    
Moisture  
Dew Point 41 °F    
Average Humidity 60    
Maximum Humidity 100    
Minimum Humidity 35    
Precipitation  
Precipitation 0.00 in - - ()
Sea Level Pressure  
Sea Level Pressure 30.25 in    
Wind  
Wind Speed 3 mph (SE)    
Max Wind Speed 8 mph    
Max Gust Speed -    
Visibility 10 miles    
Events      
Averages and records for this station are not official NWS values.
T = Trace of Precipitation, MM = Missing Value Source: NWS Daily Summary

Daily Weather History Graph

Daily Weather History Graph

Search for Another Location

Airport or City:

Trip Planner

Search our weather history database for the weather conditions in past years. The results will help you decide how hot, cold, wet, or windy it might be!

Date:

Astronomy

May. 19, 2014 Rise Set
Actual Time 6:22 AM EDT 8:43 PM EDT
Civil Twilight 5:52 AM EDT 9:13 PM EDT
Nautical Twilight 5:15 AM EDT 9:49 PM EDT
Astronomical Twilight 4:35 AM EDT 10:30 PM EDT
Moon 12:31 AM EDT (5/19) 11:17 AM EDT (5/19)
Length of Visible Light 15h 20m
Length of Day
14h 20m
Waning Gibbous, 71% of the Moon is Illuminated
May 19
Waning Gibbous
May 21
Last Quarter
May 28
New
Jun 5
First Quarter
Jun 13
Full

Hourly Weather History & Observations

Time (EDT) Temp. Windchill Dew Point Humidity Pressure Visibility Wind Dir Wind Speed Gust Speed Precip Events Conditions
12:15 AM 50.0 °F - 39.2 °F 66% 30.27 in 10.0 mi ENE 3.5 mph - N/A   Clear
12:35 AM 50.0 °F - 39.2 °F 66% 30.26 in 10.0 mi East 4.6 mph - N/A   Clear
12:55 AM 44.6 °F 43.1 °F 41.0 °F 87% 30.26 in 10.0 mi East 3.5 mph - N/A   Clear
1:15 AM 46.4 °F 45.2 °F 41.0 °F 81% 30.26 in 10.0 mi East 3.5 mph - N/A   Clear
1:35 AM 46.4 °F 45.2 °F 39.2 °F 76% 30.25 in 10.0 mi East 3.5 mph - N/A   Clear
1:55 AM 42.8 °F - 41.0 °F 93% 30.25 in 10.0 mi Calm Calm - N/A   Clear
2:15 AM 41.0 °F - 41.0 °F 100% 30.25 in 10.0 mi Calm Calm - N/A   Clear
2:35 AM 42.8 °F - 41.0 °F 93% 30.25 in 10.0 mi Calm Calm - N/A   Clear
2:55 AM 41.0 °F - 39.2 °F 93% 30.26 in 10.0 mi Calm Calm - N/A   Clear
3:15 AM 42.8 °F - 39.2 °F 87% 30.26 in 10.0 mi Calm Calm - N/A   Clear
3:35 AM 41.0 °F - 39.2 °F 93% 30.26 in 10.0 mi Calm Calm - N/A   Clear
3:55 AM 42.8 °F 41.1 °F 37.4 °F 81% 30.26 in 10.0 mi ESE 3.5 mph - N/A   Clear
4:15 AM 39.2 °F - 37.4 °F 93% 30.27 in 10.0 mi Calm Calm - N/A   Clear
4:35 AM 39.2 °F - 37.4 °F 93% 30.27 in 10.0 mi Calm Calm - N/A   Clear
4:55 AM 39.2 °F - 37.4 °F 93% 30.28 in 10.0 mi Calm Calm - N/A   Clear
5:15 AM 41.0 °F - 37.4 °F 87% 30.29 in 10.0 mi Calm Calm - N/A   Clear
5:35 AM 41.0 °F - 37.4 °F 87% 30.29 in 10.0 mi Calm Calm - N/A   Clear
5:55 AM 37.4 °F - 37.4 °F 100% 30.29 in 10.0 mi Calm Calm - N/A   Clear
6:15 AM 37.4 °F - 37.4 °F 100% 30.30 in 10.0 mi Calm Calm - N/A   Clear
6:35 AM 39.2 °F - 37.4 °F 93% 30.30 in 10.0 mi Calm Calm - N/A   Clear
6:55 AM 41.0 °F - 39.2 °F 93% 30.30 in 10.0 mi Calm Calm - N/A   Clear
7:15 AM 37.4 °F - 37.4 °F 100% 30.30 in 10.0 mi Calm Calm - N/A   Clear
7:35 AM 41.0 °F - 39.2 °F 93% 30.31 in 10.0 mi Calm Calm - N/A   Clear
7:55 AM 46.4 °F - 41.0 °F 81% 30.31 in 10.0 mi Calm Calm - N/A   Clear
8:15 AM 48.2 °F - 42.8 °F 82% 30.32 in 10.0 mi Calm Calm - N/A   Clear
8:35 AM 50.0 °F - 42.8 °F 76% 30.32 in 10.0 mi Calm Calm - N/A   Clear
10:35 AM 60.8 °F - 41.0 °F 48% 30.32 in 10.0 mi SSE 8.1 mph - N/A   Clear
10:55 AM 62.6 °F - 41.0 °F 45% 30.32 in 10.0 mi South 6.9 mph - N/A   Clear
11:15 AM 62.6 °F - 39.2 °F 42% 30.32 in 10.0 mi SE 6.9 mph - N/A   Clear
11:35 AM 64.4 °F - 39.2 °F 40% 30.31 in 10.0 mi East 4.6 mph - N/A   Clear
11:55 AM 64.4 °F - 39.2 °F 40% 30.31 in 10.0 mi ESE 5.8 mph - N/A   Clear
12:15 PM 62.6 °F - 39.2 °F 42% 30.31 in 10.0 mi ESE 5.8 mph - N/A   Clear
12:35 PM 64.4 °F - 39.2 °F 40% 30.31 in 10.0 mi SE 4.6 mph - N/A   Clear
12:55 PM 64.4 °F - 41.0 °F 42% 30.30 in 10.0 mi Calm Calm - N/A   Clear
1:15 PM 66.2 °F - 37.4 °F 35% 30.29 in 10.0 mi SSE 4.6 mph - N/A   Clear
1:35 PM 66.2 °F - 37.4 °F 35% 30.28 in 10.0 mi Calm Calm - N/A   Clear
1:55 PM 68.0 °F - 41.0 °F 37% 30.27 in 10.0 mi SSE 5.8 mph - N/A   Clear
2:15 PM 66.2 °F - 37.4 °F 35% 30.25 in 10.0 mi Calm Calm - N/A   Clear
2:35 PM 68.0 °F - 42.8 °F 40% 30.25 in 10.0 mi West 3.5 mph - N/A   Clear
2:55 PM 68.0 °F - 41.0 °F 37% 30.25 in 10.0 mi SSE 4.6 mph - N/A   Clear
3:15 PM 68.0 °F - 41.0 °F 37% 30.24 in 10.0 mi SSW 4.6 mph - N/A   Clear
3:35 PM 69.8 °F - 42.8 °F 38% 30.24 in 10.0 mi WSW 4.6 mph - N/A   Clear
3:55 PM 69.8 °F - 41.0 °F 35% 30.24 in 10.0 mi East 4.6 mph - N/A   Clear
4:15 PM 69.8 °F - 42.8 °F 38% 30.23 in 10.0 mi South 3.5 mph - N/A   Clear
4:35 PM 71.6 °F - 44.6 °F 38% 30.22 in 10.0 mi Calm Calm - N/A   Clear
4:55 PM 69.8 °F - 42.8 °F 38% 30.22 in 10.0 mi ESE 3.5 mph - N/A   Clear
5:15 PM 69.8 °F - 42.8 °F 38% 30.22 in 10.0 mi SSE 4.6 mph - N/A   Clear
5:35 PM 69.8 °F - 41.0 °F 35% 30.22 in 10.0 mi Calm Calm - N/A   Clear
5:55 PM 69.8 °F - 42.8 °F 38% 30.21 in 10.0 mi SW 3.5 mph - N/A   Clear
6:15 PM 69.8 °F - 41.0 °F 35% 30.21 in 10.0 mi Calm Calm - N/A   Clear
6:55 PM 71.6 °F - 42.8 °F 35% 30.20 in 10.0 mi South 3.5 mph - N/A   Clear
7:35 PM 69.8 °F - 42.8 °F 38% 30.19 in 10.0 mi Calm Calm - N/A   Clear
7:55 PM 68.0 °F - 44.6 °F 43% 30.19 in 10.0 mi East 3.5 mph - N/A   Clear
8:15 PM 68.0 °F - 44.6 °F 43% 30.19 in 10.0 mi ESE 3.5 mph - N/A   Clear
8:35 PM 66.2 °F - 44.6 °F 46% 30.18 in 10.0 mi ESE 5.8 mph - N/A   Clear
8:55 PM 64.4 °F - 42.8 °F 45% 30.17 in 10.0 mi ESE 5.8 mph - N/A   Clear
9:15 PM 64.4 °F - 42.8 °F 45% 30.17 in 10.0 mi SE 3.5 mph - N/A   Clear
9:35 PM 62.6 °F - 42.8 °F 48% 30.17 in 10.0 mi SE 3.5 mph - N/A   Clear
9:55 PM 62.6 °F - 42.8 °F 48% 30.16 in 10.0 mi SE 4.6 mph - N/A   Clear
10:15 PM 62.6 °F - 42.8 °F 48% 30.16 in 10.0 mi SE 4.6 mph - N/A   Clear
10:35 PM 62.6 °F - 44.6 °F 52% 30.17 in 10.0 mi SE 4.6 mph - N/A   Clear
10:55 PM 60.8 °F - 44.6 °F 55% 30.17 in 10.0 mi SE 4.6 mph - N/A   Clear
11:15 PM 60.8 °F - 44.6 °F 55% 30.17 in 10.0 mi SSE 5.8 mph - N/A   Clear
11:35 PM 60.8 °F - 44.6 °F 55% 30.17 in 10.0 mi SSE 5.8 mph - N/A   Clear
11:55 PM 59.0 °F - 44.6 °F 59% 30.17 in 10.0 mi South 5.8 mph - N/A   Clear